Babadaykhan

Turkmenistan     37˚41′24″N   60˚23′33″E
temp.,
°C
wind,
m/s
gust,
m/s
humid.,
%
clouds,
%
prec.,
mm/h
press.,
hPa
HPBL,
m
28 november, sat
sat2823:00+7˚nw6970100 0.0 1036876
02:00+6˚nw4674100 0.0 1038658
05:00+2˚ne228980 0.0 104024
08:00+3˚ese348471 0.0 104132
11:00+8˚ese675061 0.0 1041682
14:00+11˚ese773871 0.0 1038996
17:00+10˚ese584176 0.0 1037606
20:00+7˚e594799 0.0 1037173
29 november, sun
sun2923:00+6˚e61052100 0.0 1037194
02:00+5˚e61155100 0.0 1036250
05:00+4˚e6115697 0.0 1035227
08:00+4˚e585799 0.0 1035199
11:00+8˚e684199 0.0 1035450
14:00+11˚e5633100 0.0 1032690
17:00+10˚ene563089 0.0 1031506
20:00+6˚ene443818 0.0 103234
30 november, mon
mon3023:00+5˚ene55449 0.0 103176
02:00+4˚ene574986 0.0 1030113
05:00+3˚ene465193 0.0 1028127
08:00+4˚ene5751100 0.0 1027224
11:00+6˚e4544100 0.0 1027288
14:00+10˚ne4434100 0.0 1024548
17:00+8˚nne553694 0.0 1024410
20:00+6˚nnw5636100 0.0 1026359
1 december, tue
tue123:00+3˚nw234165 0.0 102622
02:00+3˚wnw44400 0.0 102646
05:00+2˚wnw34455 0.0 102622
08:00+1˚nnw23470 0.0 102822
11:00+6˚wnw11310 0.0 1028410
14:00+10˚n22260 0.0 1025581
17:00+10˚ne34290 0.0 1025225
20:00+6˚ne33400 0.0 102622
2 december, wed
wed223:00+5˚ene23440 0.0 102722
02:00+4˚e23480 0.0 102722
05:00+3˚ese22510 0.0 102722
08:00+2˚ene22540 0.0 102822
11:00+9˚ene233234 0.0 1028329
14:00+12˚ene332790 0.0 1025688
17:00+11˚ne333074 0.0 102480
20:00+7˚ne344175 0.0 102625